Regional Weather Roundup
Issued by NWS

Home | Current Version | Previous Version | Text Only | Print | Product List | Glossary On
Versions: 1 2 3 4 5 6 7 8 9 10 11 12 13 14 15 16 17 18 19 20 21 22 23 24 25 26 27 28 29 30 31 32 33 34 35 36 37 38 39 40 41 42 43 44 45 46 47 48 49 50
000
ASUS43 KDMX 201906
RWRIA

WEATHER ROUNDUP FOR IOWA
NATIONAL WEATHER SERVICE DES MOINES IA
200 PM CDT THU JUL 20 2017

NOTE: "FAIR" INDICATES FEW OR NO CLOUDS BELOW 12,000 FEET WITH NO
SIGNIFICANT WEATHER AND/OR OBSTRUCTIONS TO VISIBILITY.

* - THESE STATIONS ARE NOT NWS STATIONS...THUS NOT UNDER NWS
QUALITY CONTROL.  THEY ALSO DO NOT REPORT WEATHER SUCH
AS PRECIPITATION OR FOG.

IAZ001>003-012>014-020>022-031>034-043>046-202000-
   NORTHWEST IOWA

CITY           SKY/WX    TMP DP  RH WIND       PRES   REMARKS
CARROLL *      MOSUNNY   93  79  62 E5        29.96F HX 110
CHEROKEE *     PTSUNNY   88  74  63 E8        29.99F HX  97
DENISON *      SUNNY     93  77  59 VRB6      29.98S HX 107
ORANGE CITY *  CLOUDY    88  73  62 E9        30.01F HX  96
SHELDON *      MOSUNNY   86  72  62 E9        30.00F HX  92
SIOUX CITY     CLOUDY    91  76  61 VRB7      29.97F HX 103
SPENCER        CLOUDY    90  69  50 E8        30.02R HX  94
STORM LAKE *   CLOUDY    88  75  66 NE9       30.01S HX  97
$$

IAZ055>058-069>071-079>083-090>094-202000-
   SOUTHWEST IOWA

CITY           SKY/WX    TMP DP  RH WIND       PRES   REMARKS
ATLANTIC *     SUNNY     91  73  55 VRB6G16   29.96F HX 100
AUDUBON *      SUNNY     91  79  66 S5        29.98F HX 107
CLARINDA *     SUNNY     91  79  66 SW8       30.00F HX 107
COUNCIL BLFS * SUNNY     91  77  62 SE9       29.97S HX 105
CRESTON *      SUNNY     93  75  55 SW10      30.00F HX 104
HARLAN  *      SUNNY     91  77  62 SE10      29.99F HX 105
LAMONI         SUNNY     91  77  63 SW10      29.99F HX 104
RED OAK *      SUNNY     90  77  66 S6        29.97F HX 102
SHENANDOAH *   SUNNY     90  77  66 SW7       29.97F HX 102
$$

IAZ047>049-059>061-072>074-084-202000-
   CENTRAL IOWA

CITY           SKY/WX    TMP DP  RH WIND       PRES   REMARKS
AMES           SUNNY     93  79  63 SE5       29.96S HX 110
ANKENY *       SUNNY     95  75  52 VRB3      29.96S HX 107
BOONE *        SUNNY     93  77  59 E6        29.96F HX 107
CHARITON *     SUNNY     97  72  44 SW10      29.96F HX 105
DES MOINES     MOSUNNY   94  73  50 VRB3      29.95F HX 103
GRINNELL*      MOSUNNY   89  75  63 CALM      29.98S HX  99
KNOXVILLE *    CLOUDY    93  73  52 W3        29.94F HX 102
MARSHALLTOWN   SUNNY     92  78  63 VRB3      29.96S HX 107
NEWTON *       SUNNY     91  77  62 CALM      29.96F HX 105
PELLA *        CLOUDY    93  73  52 NW6       29.96F HX 101
PERRY *          N/A     92  79  65 CALM      29.96F HX 108
$$

IAZ004>006-015-016-023>025-035-036-202000-
   NORTH CENTRAL IOWA

CITY           SKY/WX    TMP DP  RH WIND       PRES   REMARKS
ALGONA *       SUNNY     86  75  70 NE10      30.00S HX  95
ESTHERVILLE    SUNNY     84  75  74 NE6       30.03R HX  92
FORT DODGE *   MOSUNNY   90  75  62 NE8       29.99F HX 100
MASON CITY     MOSUNNY   84  75  74 E12       30.01F HX  92
FOREST CITY *    N/A     84  73  70 NE8       30.01F HX  91
WEBSTER CITY * MOSUNNY   91  77  62 VRB6      29.95F HX 105
IOWA FALLS *   PTSUNNY   88  79  74 NE8       30.00S HX 102
$$

IAZ007>011-017>019-026>030-037>042-050>054-066-202000-
   NORTHEAST IOWA

CITY           SKY/WX    TMP DP  RH WIND       PRES   REMARKS
CEDAR RAPIDS   SUNNY     89  80  74 SW7       29.95F HX 106
CHARLES CITY * PTSUNNY   82  77  83 NE7       30.01F HX  91
CLINTON *      MOSUNNY   87  78  74 W6        29.97S HX 100
DECORAH *      CLOUDY    81  70  69 NE5       30.00F HX  84
DUBUQUE        CLOUDY    84  76  76 W3        29.98F HX  93
MONTICELLO *   MOSUNNY   88  77  70 CALM      29.96S HX 100
OELWEIN *      PTSUNNY   84  77  79 NE6       30.00S HX  94
WATERLOO       PTSUNNY   87  76  69 NE10      29.97R HX  97
$$

IAZ064-065-067-068-078-202000-
   EAST CENTRAL IOWA

CITY           SKY/WX    TMP DP  RH WIND       PRES   REMARKS
DAVENPORT      SUNNY     88  77  69 SW10      29.98S HX 100
IOWA CITY      SUNNY     91  77  63 VRB5      29.96F HX 104
MT. PLEASANT * SUNNY     96  71  43 S7        29.94F HX 103
MUSCATINE *    SUNNY     91  75  59 VRB6G12   29.95S HX 102
QUAD CITIES    MOSUNNY   90  76  63 W6        29.95S HX 101
$$

IAZ062-063-075>077-085>089-095>099-202000-
   SOUTHEAST IOWA

CITY           SKY/WX    TMP DP  RH WIND       PRES   REMARKS
BURLINGTON     MOSUNNY   93  79  63 SW7       29.95F HAZE    HX 110
FAIRFIELD *    SUNNY     95  73  49 CALM      29.95S HX 105
FORT MADISON * SUNNY     93  79  62 SW5       29.96F HX 110
KEOKUK *       SUNNY     95  75  52 SW12G20   29.95F HX 107
OSKALOOSA *      N/A     94  73  50 W5        29.96S HX 104
CENTERVILLE *    N/A     93  75  55 SW12      29.99F HX 104
OTTUMWA        SUNNY     97  72  44 SW10      29.94F HX 105
WASHINGTON *   SUNNY     91  77  62 W6G12     29.96F HX 105
$$

ABBREVIATIONS USED IN REMARKS
   TC - TEMPERATURES IN CELSIUS
  WCI - WIND CHILL INDEX
   HX - HEAT INDEX
  VSB - VISIBILITY
$$




USA.gov is the U.S. government's official web portal to all federal, state and local government web resources and services.